Preview of NWS' New Version of Forecast
This preview is not operational and should not be used for support decisions.

Regional Weather Roundup (RWR)

Issued by Gray - Portland, ME (GYX)

                            
000
ASUS41 KGYX 260410
RWRGYX
WEATHER ROUNDUP FOR MAINE AND NEW HAMPSHIRE
NATIONAL WEATHER SERVICE GRAY ME
1200 AM EDT FRI APR 26 2019

MEZ002-005-006-010-012-015-018-020-021-024-026-027-029-260500-
MAINE
  
CITY           SKY/WX    TMP DP  RH WIND       PRES   REMARKS
PORTLAND       FAIR      42  38  85 CALM      30.01R                  
SANFORD        FAIR      36  36 100 CALM      29.99S                  
BAR HARBOR     FAIR      37  36  96 SW3       30.02S                  
WISCASSET      FAIR      35  33  92 CALM      30.03R                  
ROCKLAND       FAIR      37  36  96 CALM      30.02R                  
FRYEBURG       FAIR      35  34  96 CALM      29.98F                  
LEWISTONAUBURN   N/A     37  36  96 CALM      30.00S                  
AUGUSTA        FAIR      39  38  96 SW6       30.01R                  
WATERVILLE     FAIR      40  37  89 SW5       29.98R                  
BANGOR         CLOUDY    42  39  89 SE3       30.00S                  
GREENVILLE       N/A     39  32  76 CALM      29.94R                  
MILLINOCKET    FAIR      40  35  83 CALM      29.99F                  
HOULTON        CLOUDY    38  33  82 SE7       29.98F                  
PRESQUE ISLE   CLOUDY    34  32  92 CALM      29.98F                  
FRENCHVILLE    CLOUDY    40  28  62 S7        29.94F                  
CARIBOU        CLOUDY    37  31  78 CALM      29.96F                  
$$

NHZ002-005-008-009-011-012-014-260500-
NEW HAMPSHIRE
  
CITY           SKY/WX    TMP DP  RH WIND       PRES   REMARKS
PORTSMOUTH     MOCLDY    44  42  90 E8        29.96S                  
ROCHESTER      FAIR      41  37  86 CALM      29.97S                  
NASHUA         FAIR      48  43  82 E3        29.95F                  
MANCHESTER     CLOUDY    48  39  71 E5        29.94F                  
CONCORD        FAIR      45  38  76 CALM      29.96S                  
LACONIA        FAIR      42  39  89 CALM      29.97S                  
PLYMOUTH       FAIR      40  39  96 CALM      29.96S                  
BERLIN         FAIR      30  28  92 CALM      29.94F                  
WHITEFIELD     FAIR      32  29  88 CALM      29.92F                  
JAFFREY        FAIR      46  40  79 CALM      29.93S                  
KEENE          FAIR      49  43  80 CALM      29.91S                  
LEBANON        FAIR      48  39  71 NE3       29.90S                  
MT WASHINGTON  MOCLDY    32  27  80 W25         N/A  WCI  19          
$$

VTZ005-007-008-260500-
VERMONT
  
CITY           SKY/WX    TMP DP  RH WIND       PRES   REMARKS
ST JOHNSBURY     N/A     39  37  92 MISG      29.92F                  
MONTPELIER     MOCLDY    40  36  86 CALM      29.94F                  
BURLINGTON     FAIR      46  39  76 N6        29.88F                  
$$

MAZ007-012-024-CTZ003-RIZ002-NYZ038-NYZ072-260500-
SOUTHERN NEW ENGLAND AND NY
  
CITY           SKY/WX    TMP DP  RH WIND       PRES   REMARKS
BOSTON         MOCLDY    50  42  74 S8        29.96F                  
WORCESTER      MOCLDY    48  41  76 S7        29.93F                  
NANTUCKET      FAIR      47  43  86 SE10      30.00F                  
PROVIDENCE     CLOUDY    50  44  80 S10       29.97F                  
HARTFORD       MOCLDY    55  43  63 S8        29.92S                  
ALBANY         CLOUDY    61  41  47 S9        29.85F                  
NEW YORK CITY  CLOUDY    54  46  74 CALM      29.90F                  
$$

ANZ081-ANZ082-ANZ150-NHZ014-MEZ023>029-260500-
COASTAL MARINE OBSERVATIONS
  
STATION/POSITION TIME  TEMP    WIND        PRES    WAVE
                       AIR SEA DIR/SP/G            HT/PER
                 (UTC) (F)     (DEG/KT/KT) (MB)    (FT/S)
ISLE OF SHOALS   0300   44     140/ 17/ 18 1014.5F
JEFFREYS LEDGE   0338      43                N/A     3/ 8
$$

.............KEY..............
   WCI - WIND CHILL
   TC  - TEMPERATURE IN CELSIUS
   VSB - VISIBILITY IN MILES
   HX  - HEAT INDEX
   FAIR- INDICATES FEW OR NO CLOUDS BELOW 12,000 FT, WITH NO 
         SIGNIFICANT WEATHER AND/OR OBSTRUCTIONS TO VISIBILITY.